Погода в Еланском

Россия / Свердловская область     56°48′44″N   62°29′31″E
темп.,
°C
ветер,
м/с
пор.,
м/с
влажн.,
%
обл.,
%
осадки,
мм/ч
давл.,
гПа
погр.,
м
16 мая, вс
вс1623:00+21зсз61555100 0.5 1019447
02:00+18з37527 0.0 1018121
05:00+18зюз3660100 0.0 101985
08:00+24з5125499 0.0 1018416
11:00+29з7103255 0.0 10181364
14:00+32з791974 0.0 10183159
17:00+32з682012 0.0 10174132
20:00+26зюз48345 0.0 1017108
17 мая, пн
пн1723:00+21зюз48445 0.0 1017118
02:00+19зюз49485 0.0 1017142
05:00+18зюз410565 0.0 1018177
08:00+24зюз510425 0.0 1018342
11:00+29з79281 0.0 10172286
14:00+31з911205 0.0 10153604
17:00+31з61123100 0.0 10144064
20:00+25зсз49395 0.0 1014181
18 мая, вт
вт1823:00+21з3350100 0.1 101438
02:00+17з3471100 0.7 101459
05:00+17з31072100 0.7 1014195
08:00+21сз46564 0.0 1014464
11:00+24сз693995 0.0 10142641
14:00+21с695422 0.0 10151004
17:00+17с895824 0.0 1018996
20:00+13ссв7106852 0.0 10211023
19 мая, ср
ср1923:00+12ссв61071100 0.0 1023942
02:00+9с368032 0.0 1024157
05:00+7с38840 0.0 1026181
08:00+12св3559100 0.0 1027607
11:00+16св344443 0.0 10261334
14:00+19св333560 0.0 10251597
17:00+21в12324 0.0 10241698
20:00+17ю22455 0.0 102423
20 мая, чт
чт2023:00+13юз22544 0.0 102420
02:00+11юз336029 0.0 102438
05:00+11зюз34645 0.0 102560
08:00+17зюз46485 0.0 1024349
11:00+22зюз44335 0.0 10231183
14:00+25зюз34260 0.0 10221737
17:00+26зюз35230 0.0 10201852
20:00+22юз33370 0.0 101930